Regional Weather Roundup
Issued by NWS

Home | Current Version | Previous Version | Text Only | Print | Product List | Glossary Off
Versions: 1 2 3 4 5 6 7 8 9 10 11 12 13 14 15 16 17 18 19 20 21 22 23 24 25 26 27 28

000
ASUS45 KBOU 281707
RWRCO

WEATHER ROUNDUP FOR COLORADO
NATIONAL WEATHER SERVICE DENVER/BOULDER CO
1100 AM MDT THU APR 28 2016

NOTE: "FAIR" INDICATES FEW OR NO CLOUDS BELOW 12000 FEET WITH NO
SIGNIFICANT WEATHER AND/OR OBSTRUCTIONS TO VISIBILITY.

COZ001>005-013-030-031-281800-
...NORTHWEST COLORADO...

CITY           SKY/WX    TMP DP  RH WIND       PRES   REMARKS
CRAIG          LGT SNOW  34  32  92 E3        29.80S FOG
HAYDEN         CLOUDY    37  32  81 W6        29.80R
MEEKER         CLOUDY    43  36  76 CALM      29.77S
MOUNT WERNER   NOT AVBL
STEAMBOAT SPGS CLOUDY    35  33  92 NW9       29.78S WCI  27
WALDEN         CLOUDY    34  28  80 NW6       29.84S WCI  29
$$

COZ006>008-011-281800-
...WEST CENTRAL VALLEYS...

CITY           SKY/WX    TMP DP  RH WIND       PRES   REMARKS
GRAND JUNCTION FAIR      47  41  80 W5        29.74F
MONTROSE       FAIR      50  42  74 N7        29.76F
EAGLE          LGT RAIN  45  36  70 W20       29.82R
RIFLE          FAIR      44  38  79 E6        29.79R
DELTA          NOT AVBL
NUCLA          NOT AVBL
$$

COZ017>023-064>068-281800-
...SOUTHWEST COLORADO...

CITY           SKY/WX    TMP DP  RH WIND       PRES   REMARKS
DURANGO        PTSUNNY   55  24  30 S21G35    29.80F
CORTEZ         PTSUNNY   56  22  26 S20G32    29.75S
PAGOSA SPRINGS PTSUNNY   47  28  46 S3G9      29.85F
TELLURIDE      PTSUNNY   38  31  76 E6        29.84F
WOLF CREEK PAS NOT AVBL
$$

COZ009-010-012-014-032>034-037-058>063-281800-
...CENTRAL COLORADO...

CITY           SKY/WX    TMP DP  RH WIND       PRES   REMARKS
ASPEN          LGT SNOW  36  32  85 N8        29.80R FOG
BUENA VISTA    LGT SNOW  34  31  88 SE7       29.90F WCI  27
COPPER MTN     NOT AVBL
BERTHOUD PASS  CLOUDY    18   9  68 E32G44    29.89R WCI  -3
COTTONWOOD PAS LGT SNOW  34  30  86 E7        29.91S WCI  28
GUNNISON       CLOUDY    48  25  40 W7        29.80S
KREMMLING      FAIR      39  28  65 CALM      29.81F
LEADVILLE      CLOUDY    31  28  89 S21       29.84S WCI  18
MONARCH PASS   CLOUDY    28  27  93 SW10G29   30.03R FOG     WCI  19
SALIDA         CLOUDY    33  32  94 E7        29.98S WCI  27
SUNLIGHT       LGT SNOW  32  30  93 CALM      29.89R
WILKERSON PASS CLOUDY   N/A N/A N/A S6        29.95F FOG
$$

COZ069>075-281800-
...SAN LUIS VALLEY/SANGRE DE CRISTO MOUNTAINS...

CITY           SKY/WX    TMP DP  RH WIND       PRES   REMARKS
ALAMOSA        CLOUDY    50  28  42 S14       29.84F
LA VETA PASS   FOG       32  30  93 CALM      29.95S VSB<1/4
SAGUACHE       PTSUNNY   48  28  46 S6G18     29.85S
$$

COZ035-036-038>040-281800-
...NORTHERN COLORADO FRONT RANGE...

CITY           SKY/WX    TMP DP  RH WIND       PRES   REMARKS
DENVER INTL AP LGT SNOW  36  31  82 E12       29.97S
DMNS CITY PARK   N/A     36  33  87 E6G18     29.98R
AURORA         FLURRIES  35  34  99 SE13      29.98S WCI  26
FRONT RANGE AP LGT SNOW  34  32  93 E12       29.99S VSB 1   WCI  25
ERIE MUNI ARPT FLURRIES  38  31  76 E7        29.99R
BOULDER MUN AP LGT SNOW  37  32  81 SE6       29.98R
CENTENNIAL     LGT SNOW  35  32  88 SE10      29.96S FOG     WCI  27
BROOMFIELD     LGT SNOW  37  32  81 SE3       29.98S
FORT COLLINS   CLOUDY    36  30  80 SE7       30.00R
LONGMONT       CLOUDY    40  34  79 E6        30.00S HAZE
$$

COZ041-046-047-076>085-087-088-281800-
...PIKES PEAK/PALMER DIVIDE AND SOUTHERN FOOTHILLS...

CITY           SKY/WX    TMP DP  RH WIND       PRES   REMARKS
COLO. SPRINGS  CLOUDY    33  31  92 S10       29.99S WCI  25
A. F. ACADEMY  CLOUDY    34  32  93 S13       29.95S WCI  25
SCHRIEVER AFB  NOT AVBL
ELLICOTT       NOT AVBL
FALCON         MIX PCPN  32  30  95 SE8       29.99R WCI  24
FORT CARSON    CLOUDY    33  32  94 S7        29.98R WCI  27
LIMON          LGT SNOW  35  33  92 NE3       30.00R FOG
MONUMENT HILL  CLOUDY    32  30  93 SE10      29.97R WCI  24
TRINIDAD       PTSUNNY   48  33  56 E13       29.93F
$$

COZ042>045-048>051-090-091-281800-
...NORTHEAST COLORADO...

CITY           SKY/WX    TMP DP  RH WIND       PRES   REMARKS
GREELEY ARPT   CLOUDY    37  32  81 SE8       30.00S
AKRON          LGT SNOW  38  28  67 NE5       30.00S
BURLINGTON     CLOUDY    43  30  60 NE14      30.01R
WRAY           NOT AVBL
STERLING       CLOUDY    41  32  70 E5        30.00S
HOLYOKE        NOT AVBL
FORT MORGAN    FLURRIES  37  32  81 SE5       30.01R
$$

COZ086-089-092>099-281800-
...SOUTHEAST COLORADO...

CITY           SKY/WX    TMP DP  RH WIND       PRES   REMARKS
PUEBLO         CLOUDY    43  31  62 SE7       29.99R
LA JUNTA       CLOUDY    44  30  57 E8        30.00S
LAMAR          CLOUDY    47  30  51 NE10      30.00R
SPRINGFIELD      N/A     45  30  55 NE12      29.97S
$$




USA.gov is the U.S. government's official web portal to all federal, state and local government web resources and services.